| time (UTC) | temp F | wind direction | speed knots | gust knots | rain 1hr in | rain 24hr in | rain mn in | humidity % | barometer mb |
| 20260505085822 | 72 | 121 | 0.0 | 6.1 | 0.00 | 0.00 | 0.00 | 52 | 1014.9 |
| 20260505085321 | 71 | 104 | 2.6 | 7.8 | 0.00 | 0.00 | 0.00 | 52 | 1015.0 |
| 20260505084817 | 72 | 192 | 1.7 | 7.8 | 0.00 | 0.00 | 0.00 | 50 | 1015.0 |
| 20260505084316 | 72 | 130 | 0.9 | 6.1 | 0.00 | 0.00 | 0.00 | 51 | 1015.0 |
| 20260505083817 | 72 | 138 | 0.9 | 6.1 | 0.00 | 0.00 | 0.00 | 50 | 1015.0 |
| 20260505083729 | 71 | 152 | 1.7 | 7.8 | 0.00 | 0.00 | 0.00 | 51 | 1015.0 |
| 20260505082814 | 71 | 133 | 2.6 | 7.8 | 0.00 | 0.00 | 0.00 | 52 | 1015.0 |
| 20260505082742 | 71 | 158 | 0.0 | 7.8 | 0.00 | 0.00 | 0.00 | 52 | 1015.1 |
| 20260505081814 | 71 | 133 | 4.3 | 8.7 | 0.00 | 0.00 | 0.00 | 50 | 1015.0 |
| 20260505081312 | 71 | 123 | 1.7 | 8.7 | 0.00 | 0.00 | 0.00 | 52 | 1015.1 |
| 20260505080811 | 71 | 149 | 0.9 | 6.1 | 0.00 | 0.00 | 0.00 | 53 | 1015.1 |
| 20260505080311 | 70 | 117 | 0.9 | 5.2 | 0.00 | 0.00 | 0.00 | 53 | 1015.2 |
| 20260505075810 | 70 | 97 | 1.7 | 7.8 | 0.00 | 0.00 | 0.00 | 52 | 1015.1 |
| 20260505075311 | 70 | 85 | 2.6 | 7.8 | 0.00 | 0.00 | 0.00 | 52 | 1015.1 |
| 20260505074809 | 71 | 82 | 3.5 | 6.1 | 0.00 | 0.00 | 0.00 | 50 | 1015.1 |
| 20260505074307 | 70 | 148 | 1.7 | 5.2 | 0.00 | 0.00 | 0.00 | 52 | 1015.1 |
| 20260505073809 | 71 | 103 | 1.7 | 4.3 | 0.00 | 0.00 | 0.00 | 48 | 1015.1 |
| 20260505073307 | 71 | 141 | 0.0 | 3.5 | 0.00 | 0.00 | 0.00 | 51 | 1015.1 |
| 20260505072806 | 70 | 162 | 0.0 | 3.5 | 0.00 | 0.00 | 0.00 | 50 | 1015.2 |
| 20260505072307 | 70 | 86 | 0.0 | 2.6 | 0.00 | 0.00 | 0.00 | 48 | 1015.0 |
| 20260505071805 | 70 | 147 | 0.0 | 5.2 | 0.00 | 0.00 | 0.00 | 52 | 1015.0 |
| 20260505071302 | 70 | 62 | 0.0 | 5.2 | 0.00 | 0.00 | 0.00 | 50 | 1015.1 |
| 20260505071227 | 69 | 157 | 0.0 | 2.6 | 0.00 | 0.00 | 0.00 | 50 | 1015.1 |
| 20260505070701 | 69 | 93 | 0.0 | 0.0 | 0.00 | 0.00 | 0.00 | 50 | 1015.1 |
| 20260505070450 | 69 | 131 | 0.0 | 0.0 | 0.00 | 0.00 | 0.00 | 50 | 1015.1 |
| 20260505065727 | 69 | 125 | 0.0 | 1.7 | 0.00 | 0.00 | 0.00 | 51 | 1015.1 |
| 20260505065214 | 69 | 83 | 0.0 | 1.7 | 0.00 | 0.00 | 0.00 | 53 | 1015.2 |
| 20260505064734 | 70 | 92 | 0.0 | 0.0 | 0.00 | 0.00 | 0.00 | 58 | 1015.1 |
| 20260505063802 | 69 | 133 | 0.0 | 0.0 | 0.00 | 0.00 | 0.00 | 54 | 1015.1 |
| 20260505063255 | 68 | 39 | 0.0 | 0.0 | 0.00 | 0.00 | 0.00 | 57 | 1015.1 |
| 20260505062757 | 67 | 24 | 0.0 | 0.0 | 0.00 | 0.00 | 0.00 | 58 | 1015.1 |
| 20260505062255 | 66 | 24 | 0.0 | 0.0 | 0.00 | 0.00 | 0.00 | 60 | 1015.1 |
| 20260505061752 | 66 | 233 | 0.0 | 0.0 | 0.00 | 0.00 | 0.00 | 60 | 1015.1 |
| 20260505061251 | 65 | 230 | 0.0 | 0.0 | 0.00 | 0.00 | 0.00 | 64 | 1015.2 |
| 20260505060751 | 62 | 231 | 0.0 | 0.0 | 0.00 | 0.00 | 0.00 | 67 | 1015.1 |
| 20260505060252 | 61 | 266 | 0.0 | 0.0 | 0.00 | 0.00 | 0.00 | 71 | 1015.2 |
| 20260505055753 | 60 | 248 | 0.0 | 0.0 | 0.00 | 0.00 | 0.00 | 73 | 1015.2 |
| 20260505055723 | 60 | 237 | 0.0 | 0.0 | 0.00 | 0.00 | 0.00 | 73 | 1015.3 |
| 20260505054749 | 58 | 259 | 0.0 | 0.0 | 0.00 | 0.00 | 0.00 | 76 | 1015.1 |
| 20260505054250 | 58 | 255 | 0.0 | 0.0 | 0.00 | 0.00 | 0.00 | 76 | 1015.3 |
| 20260505053748 | 57 | 261 | 0.0 | 0.0 | 0.00 | 0.00 | 0.00 | 78 | 1015.2 |
| 20260505053709 | 56 | 237 | 0.0 | 0.0 | 0.00 | 0.00 | 0.00 | 80 | 1015.3 |
| 20260505052748 | 56 | 231 | 0.0 | 0.0 | 0.00 | 0.00 | 0.00 | 80 | 1015.3 |
| 20260505052247 | 55 | 228 | 0.0 | 0.0 | 0.00 | 0.00 | 0.00 | 83 | 1015.3 |
| 20260505051746 | 54 | 275 | 0.0 | 0.0 | 0.00 | 0.00 | 0.00 | 83 | 1015.3 |
| 20260505051247 | 53 | 228 | 0.0 | 0.0 | 0.00 | 0.00 | 0.00 | 86 | 1015.3 |
| 20260505050744 | 52 | 228 | 0.0 | 0.0 | 0.00 | 0.00 | 0.00 | 88 | 1015.2 |
| 20260505050241 | 50 | 228 | 0.0 | 0.0 | 0.00 | 0.00 | 0.00 | 88 | 1015.3 |
| 20260505041734 | 43 | 309 | 0.0 | 1.7 | 0.00 | 0.00 | 0.00 | 82 | 1015.3 |
| 20260505041234 | 42 | 251 | 0.0 | 2.6 | 0.00 | 0.00 | 0.00 | 82 | 1015.3 |
| 20260505040733 | 41 | 251 | 0.9 | 2.6 | 0.00 | 0.00 | 0.00 | 82 | 1015.3 |
| 20260505040652 | 40 | 237 | 0.0 | 0.0 | 0.00 | 0.00 | 0.00 | 82 | 1015.3 |
| 20260505035734 | 40 | 237 | 0.0 | 0.0 | 0.00 | 0.00 | 0.00 | 82 | 1015.3 |
| 20260505035232 | 40 | 265 | 0.0 | 0.0 | 0.00 | 0.00 | 0.00 | 83 | 1015.3 |
| 20260505035200 | 39 | 266 | 0.0 | 0.0 | 0.00 | 0.00 | 0.00 | 83 | 1015.3 |
| 20260505034231 | 39 | 266 | 0.0 | 0.0 | 0.00 | 0.00 | 0.00 | 83 | 1015.3 |
| 20260505033732 | 39 | 240 | 0.0 | 0.0 | 0.00 | 0.00 | 0.00 | 83 | 1015.3 |
| 20260505033232 | 39 | 238 | 0.0 | 0.0 | 0.00 | 0.00 | 0.00 | 84 | 1015.3 |
| 20260505032732 | 39 | 240 | 0.0 | 0.0 | 0.00 | 0.00 | 0.00 | 84 | 1015.3 |
| 20260505032232 | 39 | 257 | 0.0 | 0.0 | 0.00 | 0.00 | 0.00 | 84 | 1015.3 |
| 20260505031733 | 39 | 261 | 0.0 | 0.0 | 0.00 | 0.00 | 0.00 | 84 | 1015.3 |
| 20260505031231 | 39 | 262 | 0.0 | 0.0 | 0.00 | 0.00 | 0.00 | 84 | 1015.3 |
| 20260505030734 | 39 | 262 | 0.0 | 0.0 | 0.00 | 0.00 | 0.00 | 84 | 1015.3 |
| 20260505030232 | 39 | 241 | 0.0 | 0.0 | 0.00 | 0.00 | 0.00 | 84 | 1015.2 |
| 20260505025731 | 39 | 241 | 0.0 | 0.0 | 0.00 | 0.00 | 0.00 | 85 | 1015.3 |
| 20260505025636 | 39 | 241 | 0.0 | 0.0 | 0.00 | 0.00 | 0.00 | 85 | 1015.2 |
| 20260505025422 | 39 | 241 | 0.0 | 0.0 | 0.00 | 0.00 | 0.00 | 85 | 1015.2 |
| 20260505024634 | 40 | 241 | 0.0 | 0.0 | 0.00 | 0.00 | 0.00 | 85 | 1015.2 |
| 20260505024422 | 39 | 241 | 0.0 | 0.0 | 0.00 | 0.00 | 0.00 | 85 | 1015.2 |
| 20260505023232 | 40 | 241 | 0.0 | 0.0 | 0.00 | 0.00 | 0.00 | 85 | 1015.2 |
| 20260505022730 | 40 | 261 | 0.0 | 0.0 | 0.00 | 0.00 | 0.00 | 85 | 1015.2 |
| 20260505022231 | 40 | 257 | 0.0 | 0.0 | 0.00 | 0.00 | 0.00 | 86 | 1015.1 |
| 20260505021730 | 40 | 257 | 0.0 | 0.0 | 0.00 | 0.00 | 0.00 | 86 | 1015.1 |
| 20260505021230 | 40 | 265 | 0.0 | 0.0 | 0.00 | 0.00 | 0.00 | 85 | 1015.2 |
| 20260505020729 | 40 | 274 | 0.0 | 0.0 | 0.00 | 0.00 | 0.00 | 86 | 1015.2 |
| 20260505020229 | 40 | 274 | 0.0 | 0.0 | 0.00 | 0.00 | 0.00 | 85 | 1015.1 |
| 20260505015729 | 40 | 252 | 0.0 | 0.0 | 0.00 | 0.00 | 0.00 | 86 | 1015.2 |
| 20260505015651 | 40 | 251 | 0.0 | 0.0 | 0.00 | 0.00 | 0.00 | 86 | 1015.1 |
| 20260505014730 | 41 | 272 | 0.0 | 0.0 | 0.00 | 0.00 | 0.00 | 85 | 1015.1 |
| 20260505014230 | 41 | 247 | 0.0 | 0.0 | 0.00 | 0.00 | 0.00 | 86 | 1015.1 |
| 20260505013730 | 40 | 247 | 0.0 | 0.0 | 0.00 | 0.00 | 0.00 | 86 | 1015.1 |
| 20260505013229 | 41 | 247 | 0.0 | 0.0 | 0.00 | 0.00 | 0.00 | 86 | 1015.0 |
| 20260505012728 | 41 | 245 | 0.0 | 1.7 | 0.00 | 0.00 | 0.00 | 86 | 1015.0 |
| 20260505012722 | 41 | 245 | 0.0 | 2.6 | 0.00 | 0.00 | 0.00 | 86 | 1015.0 |
| 20260505011728 | 42 | 247 | 0.9 | 2.6 | 0.00 | 0.00 | 0.00 | 86 | 1015.0 |
| 20260505011231 | 41 | 235 | 0.0 | 0.0 | 0.00 | 0.00 | 0.00 | 87 | 1014.9 |
| 20260505010729 | 41 | 252 | 0.0 | 0.0 | 0.00 | 0.00 | 0.00 | 87 | 1015.0 |
| 20260505010230 | 41 | 252 | 0.0 | 0.0 | 0.00 | 0.00 | 0.00 | 87 | 1015.0 |
| 20260505005729 | 42 | 264 | 0.0 | 0.0 | 0.00 | 0.00 | 0.00 | 87 | 1015.0 |
| 20260505005651 | 42 | 264 | 0.0 | 6.1 | 0.00 | 0.00 | 0.00 | 87 | 1014.9 |
| 20260505004727 | 43 | 272 | 0.0 | 6.1 | 0.00 | 0.00 | 0.00 | 86 | 1014.8 |
| 20260505004227 | 42 | 254 | 1.7 | 3.5 | 0.00 | 0.00 | 0.00 | 85 | 1014.8 |
| 20260505003728 | 42 | 252 | 1.7 | 6.1 | 0.00 | 0.00 | 0.00 | 86 | 1014.7 |
| 20260505003227 | 42 | 250 | 2.6 | 6.1 | 0.00 | 0.00 | 0.00 | 85 | 1014.8 |
| 20260505002729 | 42 | 243 | 0.0 | 0.0 | 0.00 | 0.00 | 0.00 | 86 | 1014.8 |
| 20260505002658 | 42 | 278 | 0.0 | 0.0 | 0.00 | 0.00 | 0.00 | 86 | 1014.8 |
| 20260505001727 | 42 | 265 | 0.0 | 0.0 | 0.00 | 0.00 | 0.00 | 87 | 1014.9 |
| 20260505001231 | 42 | 265 | 0.0 | 0.0 | 0.00 | 0.00 | 0.00 | 87 | 1014.9 |
| 20260505000726 | 42 | 265 | 0.0 | 0.0 | 0.00 | 0.00 | 0.00 | 87 | 1014.8 |
| 20260505000228 | 43 | 241 | 0.0 | 2.6 | 0.00 | 0.00 | 0.00 | 87 | 1014.8 |
| 20260504235727 | 42 | 245 | 0.9 | 2.6 | 0.00 | 0.00 | 0.00 | 87 | 1014.8 |
| 20260504235227 | 43 | 186 | 0.0 | 0.9 | 0.00 | 0.00 | 0.00 | 88 | 1015.0 |
| 20260504234726 | 44 | 186 | 0.0 | 7.8 | 0.00 | 0.00 | 0.00 | 88 | 1015.0 |
| 20260504234229 | 44 | 186 | 0.9 | 7.8 | 0.00 | 0.00 | 0.00 | 87 | 1014.9 |
| 20260504233726 | 43 | 278 | 0.9 | 3.5 | 0.00 | 0.00 | 0.00 | 88 | 1014.8 |
| 20260504233227 | 44 | 244 | 0.0 | 5.2 | 0.00 | 0.00 | 0.00 | 87 | 1014.9 |
| 20260504232726 | 44 | 251 | 0.9 | 5.2 | 0.00 | 0.00 | 0.00 | 87 | 1014.8 |
| 20260504232225 | 44 | 247 | 2.6 | 5.2 | 0.00 | 0.00 | 0.00 | 86 | 1014.9 |
| 20260504231725 | 43 | 262 | 0.9 | 3.5 | 0.00 | 0.00 | 0.00 | 86 | 1015.0 |
| 20260504231226 | 42 | 237 | 0.0 | 0.0 | 0.00 | 0.00 | 0.00 | 87 | 1015.0 |
| 20260504230726 | 43 | 237 | 0.0 | 0.9 | 0.00 | 0.00 | 0.00 | 88 | 1015.1 |
| 20260504230228 | 43 | 243 | 0.0 | 0.9 | 0.00 | 0.00 | 0.00 | 88 | 1015.1 |
| 20260504225726 | 43 | 257 | 0.0 | 0.0 | 0.00 | 0.00 | 0.00 | 88 | 1015.2 |
| 20260504225225 | 44 | 257 | 0.0 | 3.5 | 0.00 | 0.00 | 0.00 | 88 | 1015.1 |
| 20260504225145 | 44 | 257 | 0.9 | 3.5 | 0.00 | 0.00 | 0.00 | 88 | 1015.1 |
| 20260504224225 | 44 | 228 | 0.0 | 2.6 | 0.00 | 0.00 | 0.00 | 88 | 1015.2 |
| 20260504223724 | 45 | 63 | 0.0 | 4.3 | 0.00 | 0.00 | 0.00 | 88 | 1015.3 |
| 20260504223643 | 45 | 300 | 0.9 | 4.3 | 0.00 | 0.00 | 0.00 | 88 | 1015.2 |
| 20260504222724 | 44 | 279 | 0.9 | 3.5 | 0.00 | 0.00 | 0.00 | 88 | 1015.1 |
| 20260504222224 | 44 | 47 | 0.0 | 0.9 | 0.00 | 0.00 | 0.00 | 88 | 1015.2 |
| 20260504221726 | 45 | 281 | 0.0 | 0.0 | 0.00 | 0.00 | 0.00 | 88 | 1015.2 |
| 20260504221226 | 47 | 281 | 0.0 | 2.6 | 0.00 | 0.00 | 0.00 | 88 | 1015.2 |
| 20260504220724 | 47 | 265 | 0.0 | 3.5 | 0.00 | 0.00 | 0.00 | 88 | 1015.4 |
| 20260504220225 | 47 | 281 | 0.9 | 5.2 | 0.00 | 0.00 | 0.00 | 88 | 1015.3 |
| 20260504215724 | 47 | 271 | 1.7 | 5.2 | 0.00 | 0.00 | 0.00 | 87 | 1015.3 |
| 20260504215541 | 45 | 214 | 0.0 | 2.6 | 0.00 | 0.00 | 0.00 | 87 | 1015.3 |
| 20260504215358 | 46 | 269 | 0.0 | 6.1 | 0.00 | 0.00 | 0.00 | 87 | 1015.3 |
| 20260504214908 | 46 | 274 | 0.9 | 6.1 | 0.00 | 0.00 | 0.00 | 87 | 1015.3 |
| 20260504213725 | 45 | 268 | 0.0 | 0.0 | 0.00 | 0.00 | 0.00 | 88 | 1015.3 |
| 20260504213223 | 45 | 269 | 0.0 | 0.0 | 0.00 | 0.00 | 0.00 | 88 | 1015.3 |
| 20260504212724 | 46 | 269 | 0.0 | 0.0 | 0.00 | 0.00 | 0.00 | 88 | 1015.3 |
| 20260504212224 | 47 | 274 | 0.0 | 2.6 | 0.00 | 0.00 | 0.00 | 88 | 1015.4 |
| 20260504211726 | 47 | 228 | 0.0 | 5.2 | 0.00 | 0.00 | 0.00 | 87 | 1015.4 |
| 20260504211223 | 47 | 266 | 1.7 | 5.2 | 0.00 | 0.00 | 0.00 | 87 | 1015.4 |
| 20260504210725 | 47 | 264 | 1.7 | 4.3 | 0.00 | 0.00 | 0.00 | 87 | 1015.4 |
| 20260504210223 | 47 | 262 | 2.6 | 4.3 | 0.00 | 0.00 | 0.00 | 86 | 1015.3 |
| 20260504210204 | 46 | 281 | 0.0 | 2.6 | 0.00 | 0.00 | 0.00 | 86 | 1015.3 |
| 20260504205225 | 45 | 271 | 0.9 | 2.6 | 0.00 | 0.00 | 0.00 | 86 | 1015.3 |
| 20260504204724 | 44 | 252 | 0.0 | 0.0 | 0.00 | 0.00 | 0.00 | 87 | 1015.3 |
| 20260504204224 | 45 | 228 | 0.0 | 0.0 | 0.00 | 0.00 | 0.00 | 87 | 1015.3 |
| 20260504203722 | 45 | 228 | 0.0 | 0.0 | 0.00 | 0.00 | 0.00 | 87 | 1015.3 |
| 20260504203223 | 45 | 274 | 0.0 | 0.0 | 0.00 | 0.00 | 0.00 | 87 | 1015.4 |
| 20260504203114 | 46 | 272 | 0.0 | 0.0 | 0.00 | 0.00 | 0.00 | 87 | 1015.2 |
| 20260504202911 | 46 | 274 | 0.0 | 0.0 | 0.00 | 0.00 | 0.00 | 87 | 1015.3 |
| 20260504201722 | 46 | 272 | 0.0 | 0.0 | 0.00 | 0.00 | 0.00 | 87 | 1015.3 |
| 20260504201221 | 46 | 272 | 0.0 | 0.0 | 0.00 | 0.00 | 0.00 | 87 | 1015.3 |
| 20260504200724 | 46 | 272 | 0.0 | 0.0 | 0.00 | 0.00 | 0.00 | 87 | 1015.3 |
| 20260504200221 | 46 | 250 | 0.0 | 0.0 | 0.00 | 0.00 | 0.00 | 87 | 1015.3 |
| 20260504195722 | 47 | 250 | 0.0 | 0.0 | 0.00 | 0.00 | 0.00 | 87 | 1015.3 |
| 20260504195221 | 47 | 250 | 0.0 | 0.0 | 0.00 | 0.00 | 0.00 | 87 | 1015.2 |
| 20260504194723 | 47 | 250 | 0.0 | 0.0 | 0.00 | 0.00 | 0.00 | 87 | 1015.2 |
| 20260504194649 | 47 | 250 | 0.0 | 0.0 | 0.00 | 0.00 | 0.00 | 87 | 1015.2 |
| 20260504193721 | 48 | 250 | 0.0 | 0.0 | 0.00 | 0.00 | 0.00 | 87 | 1015.2 |
| 20260504193221 | 48 | 244 | 0.0 | 0.0 | 0.00 | 0.00 | 0.00 | 87 | 1015.3 |
| 20260504192720 | 48 | 244 | 0.0 | 0.0 | 0.00 | 0.00 | 0.00 | 87 | 1015.3 |
| 20260504192222 | 48 | 252 | 0.0 | 0.0 | 0.00 | 0.00 | 0.00 | 87 | 1015.2 |
| 20260504192132 | 48 | 217 | 0.0 | 0.0 | 0.00 | 0.00 | 0.00 | 87 | 1015.2 |
| 20260504191223 | 48 | 217 | 0.0 | 0.0 | 0.00 | 0.00 | 0.00 | 87 | 1015.2 |
| 20260504190721 | 48 | 204 | 0.0 | 0.0 | 0.00 | 0.00 | 0.00 | 87 | 1015.3 |
| 20260504190219 | 49 | 204 | 0.0 | 0.0 | 0.00 | 0.00 | 0.00 | 86 | 1015.5 |
| 20260504185720 | 49 | 204 | 0.0 | 0.0 | 0.00 | 0.00 | 0.00 | 86 | 1015.3 |
| 20260504185219 | 50 | 204 | 0.0 | 0.0 | 0.00 | 0.00 | 0.00 | 86 | 1015.4 |
| 20260504184720 | 50 | 204 | 0.0 | 0.0 | 0.00 | 0.00 | 0.00 | 85 | 1015.4 |
| 20260504184635 | 50 | 204 | 0.0 | 0.0 | 0.00 | 0.00 | 0.00 | 85 | 1015.3 |
| 20260504183717 | 51 | 204 | 0.0 | 0.0 | 0.00 | 0.00 | 0.00 | 84 | 1015.3 |
| 20260504183217 | 52 | 206 | 0.0 | 0.0 | 0.00 | 0.00 | 0.00 | 83 | 1015.2 |
| 20260504182715 | 52 | 268 | 0.0 | 0.0 | 0.00 | 0.00 | 0.00 | 82 | 1015.2 |
| 20260504182215 | 53 | 298 | 0.0 | 0.0 | 0.00 | 0.00 | 0.00 | 81 | 1015.1 |
| 20260504181715 | 54 | 296 | 0.0 | 0.0 | 0.00 | 0.00 | 0.00 | 80 | 1015.1 |
| 20260504181213 | 54 | 281 | 0.0 | 0.0 | 0.00 | 0.00 | 0.00 | 79 | 1015.2 |
| 20260504180712 | 55 | 261 | 0.0 | 0.0 | 0.00 | 0.00 | 0.00 | 79 | 1015.1 |
| 20260504180214 | 55 | 276 | 0.0 | 0.0 | 0.00 | 0.00 | 0.00 | 77 | 1015.1 |
| 20260504180128 | 56 | 224 | 0.0 | 2.6 | 0.00 | 0.00 | 0.00 | 76 | 1015.1 |
| 20260504175212 | 56 | 257 | 0.0 | 2.6 | 0.00 | 0.00 | 0.00 | 76 | 1015.0 |
| 20260504174705 | 56 | 293 | 0.0 | 1.7 | 0.00 | 0.00 | 0.00 | 78 | 1015.0 |
| 20260504174206 | 55 | 259 | 0.0 | 0.0 | 0.00 | 0.00 | 0.00 | 78 | 1014.9 |
| 20260504173707 | 56 | 309 | 0.0 | 0.0 | 0.00 | 0.00 | 0.00 | 77 | 1014.8 |
| 20260504173206 | 56 | 309 | 0.0 | 0.0 | 0.00 | 0.00 | 0.00 | 77 | 1014.9 |
| 20260504172705 | 56 | 54 | 0.0 | 0.0 | 0.00 | 0.00 | 0.00 | 74 | 1014.9 |
| 20260504172204 | 57 | 54 | 0.0 | 0.0 | 0.00 | 0.00 | 0.00 | 72 | 1014.9 |
| 20260504171704 | 58 | 54 | 0.0 | 0.0 | 0.00 | 0.00 | 0.00 | 71 | 1014.8 |
| 20260504171618 | 59 | 54 | 0.0 | 0.0 | 0.00 | 0.00 | 0.00 | 69 | 1014.7 |
| 20260504171127 | 60 | 54 | 0.0 | 0.0 | 0.00 | 0.00 | 0.00 | 69 | 1014.7 |
| 20260504170203 | 60 | 54 | 0.0 | 0.0 | 0.00 | 0.00 | 0.00 | 69 | 1014.7 |
| 20260504160157 | 66 | 111 | 0.0 | 0.0 | 0.00 | 0.00 | 0.00 | 60 | 1014.4 |
| 20260504151149 | 66 | 138 | 0.0 | 0.9 | 0.00 | 0.00 | 0.00 | 57 | 1014.3 |
| 20260504151048 | 66 | 138 | 0.0 | 0.0 | 0.00 | 0.00 | 0.00 | 57 | 1014.4 |
| 20260504150841 | 66 | 120 | 0.0 | 0.9 | 0.00 | 0.00 | 0.00 | 56 | 1014.3 |
| 20260504141142 | 67 | 109 | 0.0 | 7.8 | 0.00 | 0.00 | 0.00 | 55 | 1014.2 |
| 20260504140641 | 67 | 54 | 0.0 | 5.2 | 0.00 | 0.00 | 0.00 | 54 | 1014.2 |
| 20260504140137 | 67 | 72 | 0.0 | 5.2 | 0.00 | 0.00 | 0.00 | 54 | 1014.2 |
| 20260504130132 | 67 | 148 | 0.0 | 7.8 | 0.00 | 0.00 | 0.00 | 55 | 1014.4 |
| 20260504120131 | 69 | 107 | 1.7 | 7.8 | 0.00 | 0.00 | 0.00 | 49 | 1014.7 |
| 20260504110632 | 69 | 147 | 0.0 | 7.8 | 0.00 | 0.00 | 0.00 | 48 | 1014.9 |
| 20260504110129 | 70 | 113 | 0.9 | 10.4 | 0.00 | 0.00 | 0.00 | 48 | 1014.9 |
| 20260504100120 | 69 | 158 | 0.0 | 6.1 | 0.00 | 0.00 | 0.00 | 48 | 1015.0 |